Hourly Data Report for November 17, 2019

All times are specified in Local Standard Time (LST). Add 1 hour to adjust for Daylight Saving Time where and when it is observed.

HOPE A
BRITISH COLUMBIA
Current Station Operator: NAVCAN

49°22'06.000" N
121°29'53.000" W
39.00 m
1113542
71187
YHE

Download Data

Hourly Data (November 2019)
Hourly Data Report for November 17, 2019
TIME Temp Definition
°C
Dew Point Definition
°C
Rel Hum Definition
%
Wind Dir Definition
10's deg

Wind Spd Definition
km/h
Visibility Definition
km
Stn Press Definition
kPa
Hmdx Definition


Wind Chill Definition


Weather Definition


00:00 8.9 8.3 96 24 8 11.3 101.45     Rain
01:00 8.8 8.4 97 23 11 4.8 101.36     Rain,Fog
02:00 8.9 8.5 97 22 11 11.3 101.30     Rain
03:00 8.9 8.5 97 25 11 14.5 101.27     Rain
04:00 8.8 8.5 98 24 9 4.8 101.21     Moderate Rain,Fog
05:00 8.9 8.6 98 25 11 9.7 101.19     Moderate Rain,Fog
06:00 9.2 8.8 97 26 13 11.3 101.21     Moderate Rain
07:00 9.0 8.7 98 25 15 11.3 101.19     Moderate Rain
08:00 9.1 8.8 98 LegendMM 4 14.5 101.12     Rain
09:00 9.6 9.3 98 23 8 4.8 101.10     Rain,Fog
10:00 9.8 9.5 98 24 11 4.8 101.14     Moderate Rain,Fog
11:00 9.9 9.6 98 23 13 3.2 101.19     Rain,Fog
12:00 10.3 10.0 98 24 18 3.2 101.17     Rain,Fog
13:00 10.7 10.3 97 21 18 4.0 101.18     Rain,Fog
14:00 11.2 10.6 96 23 17 4.0 101.22     Rain,Fog
15:00 12.4 11.2 92 28 18 6.4 101.20     Moderate Rain,Fog
16:00 13.0 10.9 87 28 22 16.1 101.30     LegendNANA
17:00 13.1 10.7 85 28 22 16.1 101.41     LegendNANA
18:00 12.3 9.9 85 24 11 16.1 101.54     LegendNANA
19:00 11.4 9.3 87 17 8 16.1 101.62     LegendNANA
20:00 10.7 8.7 87 LegendMM 11 16.1 101.66     LegendNANA
21:00 9.8 8.3 90 21 8 16.1 101.67     LegendNANA
22:00 10.2 8.4 89 LegendMM 8 16.1 101.73     LegendNANA
23:00 9.5 8.0 91   0 16.1 101.71     LegendNANA

Notes on Data Quality.

Legend

  • E = Estimated
  • M = Missing
  • NA = Not Available
Date modified: